Preview of NWS' New Version of Forecast
This preview is not operational and should not be used for support decisions.

Regional Weather Roundup (RWR)

Issued by National Weather Service (NWS)

                            
000
ASUS45 KCYS 241610
RWRWY 

WYOMING REGIONAL WEATHER ROUNDUP
NATIONAL WEATHER SERVICE CHEYENNE WY
1000 AM MDT MON JUN 24 2019

NOTE:  "FAIR" INDICATES FEW OR NO CLOUDS BELOW 12,000 FEET
WITH NO SIGNIFICANT WEATHER AND/OR OBSTRUCTIONS TO VISIBILITY.

WYZ001-241700-
...YELLOWSTONE NATIONAL PARK...
  
CITY           SKY/WX    TMP DP  RH WIND       PRES   REMARKS
LK YELLOWSTONE   N/A     51  32  48 MISG      30.06S                  
W YELLOWSTONE  NOT AVBL                                               

$$
WYZ002>013-054>058-071-098>099-241700-
...NORTHERN WYOMING...
  
CITY           SKY/WX    TMP DP  RH WIND       PRES   REMARKS
JACKSON        MOSUNNY   57  33  40 S17       30.04S                  
CODY           MOSUNNY   58  42  55 N10       29.94F                  
GREYBULL       SUNNY     67  41  38 N14G20    29.86S                  
WORLAND        SUNNY     66  44  45 N10       29.88S                  
SHERIDAN       CLOUDY    60  47  61 NW8       29.90R                  
BUFFALO        MOSUNNY   60  44  55 N20       29.91S                  
GILLETTE       MOSUNNY   62  50  64 N14       29.87S                  
HULETT         FAIR      61  46  59 W6        29.88S                  
NEWCASTLE      FAIR      63  45  51 NW7       29.87S                  

$$
WYZ014>020-022>026-101>103-241700-
...CENTRAL WYOMING...
  
CITY           SKY/WX    TMP DP  RH WIND       PRES   REMARKS
BIG PINEY      MOSUNNY   60  28  29 N12       30.08S                  
PINEDALE       MOSUNNY   55  30  38 NW5       30.08F                  
DUBOIS         FAIR      57  30  35 NW16G29   30.00S                  
LANDER         PTSUNNY   60  38  43 CALM      29.93S                  
RIVERTON       PTSUNNY   64  35  34 NW10      29.94R                  
CASPER         SUNNY     69  40  34 W12       29.91S                  
DOUGLAS        SUNNY     69  44  40 W13       29.90S                  

$$
WYZ021-027>030-104>119-241700-
...SOUTHERN WYOMING...
  
CITY           SKY/WX    TMP DP  RH WIND       PRES   REMARKS
EVANSTON       SUNNY     59  30  33 SW9       30.13R                  
KEMMERER       SUNNY     59  27  29 W15       30.12S                  
FORT BRIDGER   NOT AVBL                                               
ROCK SPRINGS   MOSUNNY   60  28  29 W13       30.09F                  
DIXON          PTSUNNY   61  32  34 S22G28    30.14R                  
RAWLINS        SUNNY     63  33  32 W23G33    30.05R                  
SARATOGA       FAIR      61  34  36 W22G28    30.09R                  
LARAMIE        SUNNY     62  34  35 W26G37    30.05S                  
CHEYENNE       SUNNY     64  37  36 W17       30.01S                  
TORRINGTON     SUNNY     68  51  54 SW5       29.86F                  
PINE BLUFFS    FAIR      68  43  40 SW9       29.95F                  

$$
  

000
ASUS45 KCYS 241610
RWRWY 

WYOMING REGIONAL WEATHER ROUNDUP
NATIONAL WEATHER SERVICE CHEYENNE WY
1000 AM MDT MON JUN 24 2019

NOTE:  "FAIR" INDICATES FEW OR NO CLOUDS BELOW 12,000 FEET
WITH NO SIGNIFICANT WEATHER AND/OR OBSTRUCTIONS TO VISIBILITY.

WYZ001-241700-
YELLOWSTONE NATIONAL PARK
  
CITY           SKY/WX    TMP DP  RH WIND       PRES   REMARKS
LK YELLOWSTONE   N/A     51  32  48 MISG      30.06S                  
W YELLOWSTONE  NOT AVBL                                               

$$
WYZ002>013-054>058-071-098>099-241700-
NORTHERN WYOMING
  
CITY           SKY/WX    TMP DP  RH WIND       PRES   REMARKS
JACKSON        FAIR      57  33  40 S17       30.04S                  
CODY           FAIR      58  42  55 N10       29.94F                  
GREYBULL       FAIR      67  41  38 N14G20    29.86S                  
WORLAND        FAIR      66  44  45 N10       29.88S                  
SHERIDAN       CLOUDY    60  47  61 NW8       29.90R                  
BUFFALO        FAIR      60  44  55 N20       29.91S                  
GILLETTE       FAIR      62  50  64 N14       29.87S                  
HULETT         FAIR      61  46  59 W6        29.88                   
NEWCASTLE      FAIR      63  45  51 NW7       29.87                   

$$
WYZ014>020-022>026-101>103-241700-
CENTRAL WYOMING
  
CITY           SKY/WX    TMP DP  RH WIND       PRES   REMARKS
BIG PINEY      FAIR      60  28  29 N12       30.08S                  
PINEDALE       FAIR      55  30  38 NW5       30.08                   
DUBOIS         FAIR      57  30  35 NW16G29   30.00                   
LANDER         FAIR      60  38  43 CALM      29.93S                  
RIVERTON       FAIR      64  35  34 NW10      29.94R                  
CASPER         FAIR      69  40  34 W12       29.91S                  
DOUGLAS        FAIR      69  44  40 W13       29.90S                  

$$
WYZ021-027>030-104>119-241700-
SOUTHERN WYOMING
  
CITY           SKY/WX    TMP DP  RH WIND       PRES   REMARKS
EVANSTON       FAIR      59  30  33 SW9       30.13R                  
KEMMERER       FAIR      57  28  33 W13G20    30.12                   
ROCK SPRINGS   FAIR      60  28  29 W13       30.09F                  
DIXON          PTSUNNY   61  32  34 S22G28    30.14R                  
RAWLINS        FAIR      63  33  32 W23G33    30.05R                  
SARATOGA       FAIR      61  34  36 W22G28    30.09R                  
LARAMIE        FAIR      62  34  35 W26G37    30.05S                  
CHEYENNE       FAIR      64  37  36 W17       30.01S                  
TORRINGTON     FAIR      68  51  54 SW5       29.86F                  
PINE BLUFFS    FAIR      68  43  40 SW9       29.95F                  

$$